GONETS M 04

Satellite information

Favourite Embed

Satellite Type and Status

PAYLOADIN ORBIT

Key statistics

Satellite GONETS M 04 at a glance.

Uptime

4893

Days in orbit

Revolutions

≈ 12.4

Per day

Orbit

LEO

Low Earth Orbit

Inclination

82.5

Latest

Satellite identification and parameters

Extended collection of information and parameters for GONETS M 04.

Object identification

Identified? True

Debris? False

Object name: GONETS M 04

International designator: 2012-041D

Object number (NORAD): 38736

Object ID (CCSDS): 38736

Country: COMMONWEALTH OF INDEPENDENT STATES (CIS)

Current information (Y/N): Y

RCS size: LARGE

Orbital parameters

Period: 115.765 minutes

Inclination: 82.4778 deg

SMA: 7868.264 km

Apoapsis: 1510.242 km

Periapsis: 1470.015 km

RAAN: 183.4158 deg

Eccentricy: 0.00255625

Argument of periapsis: 87.0977 deg

Mean anomaly: 273.3028 deg

Mean motion: 12.43896976 rev/day

Mean motion (dot): 0.00000017 rev/day2

B* drag term: 0.000050171031 1/REarth

Two-line elements (TLE)

Creation date: Dec. 19, 2025, 2:08 a.m.

Reference frame: TEME

Reference center: EARTH

Epoch: Dec. 18, 2025, 10:35 p.m. UTC

TLE line 0: 0 GONETS M 04

TLE line 1: 1 38736U 12041D 25352.94101757 .00000017 00000-0 50171-4 0 9992

TLE line 2: 2 38736 82.4778 183.4158 0025563 87.0977 273.3028 12.43896976600549

Live tracking on map

Real-time ground track for satellite GONETS M 04.

In-orbit conjunctions

There are no conjunctions computed for GONETS M 04, at the moment. Check back to stay up to date, as we update our databases every day.

Go to all conjunctions

Associated space launch

Gonets-M are an upgraded version of Gonets satellites, derived from military communications system Strela-3. Gonets-M constellation is tasked with monitoring ecological and industrial objects, providing communication and data transmission services, covering also the remote areas like the Far North region.

GONETS M 04 was lifted into orbit during the mission ‘Rokot / Briz-KM | Gonets M-13, Gonets M-15, Strela-3M (Kosmos-2481) & Yubileyniy 2 (MiR)’, on board a Rokot/Briz-KM space rocket.

The launch took place on July 28, 2012, 1:35 a.m. from 133/3 (133L).

For more information about the launch, click the button.

Launch to space Rokot / Briz-KM | Gonets M-13, Gonets M-15, Strela-3M (Kosmos-2481) & Yubileyniy 2 (MiR)
Rokot / Briz-KM | Gonets M-13, Gonets M-15, Strela-3M (Kosmos-2481) & Yubileyniy 2 (MiR)

Agency: N/A

Status: Launch Successful

Launch date: July 28, 2012, 1:35 a.m. UTC

Rocket: Rokot/Briz-KM

Launch pad: 133/3 (133L)

Location: Plesetsk Cosmodrome, Russian Federation

...

Latest news about this satellite

There are no fresh news available about this satellite. Check back as we update our databases every day.


Newsletter sign-up

Weekly statistics, charts and insights to help you stay on top of the space industry.